CW8386 Weather Reports


Display with metric or nautical units.
time (UTC)temp
F
wind
direction
speed
MPH
gust
MPH
rain 1hr
in
rain 24hr
in
rain mn
in
humidity
%
barometer
mb
20260510020534 58 360 0.0 2.0 0.00 0.02 0.02 52 1019.5
20260510020115 59 360 0.0 2.0 0.00 0.02 0.02 48 1019.4
20260510015555 60 360 0.0 0.0 0.00 0.02 0.02 47 1019.3
20260510015116 61 360 0.0 0.0 0.00 0.02 0.02 44 1019.3
20260510014555 61 360 0.0 0.0 0.00 0.02 0.02 43 1019.3
20260510014057 61 360 0.0 0.0 0.00 0.02 0.02 43 1019.2
20260510013537 61 360 0.0 0.0 0.00 0.02 0.02 42 1019.1
20260510013059 62 360 0.0 0.0 0.00 0.02 0.02 42 1019.2
20260510012059 62 360 0.0 0.0 0.00 0.02 0.02 41 1019.1
20260510011559 62 360 0.0 0.0 0.00 0.02 0.02 41 1019.0
20260510011040 62 360 0.0 6.0 0.00 0.02 0.02 41 1019.0
20260510010600 62 360 1.0 6.0 0.00 0.02 0.02 41 1019.0
20260510010100 62 360 0.0 6.0 0.00 0.02 0.02 41 1018.9
20260510005540 62 360 0.0 5.0 0.00 0.02 0.02 40 1018.8
20260510005101 63 360 3.0 5.0 0.00 0.02 0.02 39 1018.8
20260510004543 63 360 0.0 5.0 0.00 0.02 0.02 39 1018.7
20260510004125 63 360 0.0 5.0 0.00 0.02 0.02 39 1018.6
20260510003543 63 360 2.0 5.0 0.00 0.02 0.02 38 1018.6
20260510003126 63 360 0.0 1.0 0.00 0.02 0.02 38 1018.5
20260510002545 63 360 0.0 6.0 0.00 0.02 0.02 38 1018.3
20260510002026 63 360 2.0 6.0 0.00 0.02 0.02 39 1018.3
20260510001546 63 360 0.0 5.0 0.00 0.02 0.02 38 1018.2
20260510001108 63 360 0.0 7.0 0.00 0.02 0.02 38 1018.0
20260510000527 63 360 1.0 7.0 0.00 0.02 0.02 40 1018.1
20260510000048 63 360 1.0 7.0 0.00 0.02 0.02 40 1018.1
20260509235549 63 360 1.0 7.0 0.00 0.02 0.02 41 1018.1
20260509235029 62 360 1.0 10.0 0.00 0.02 0.02 42 1017.9
20260509234551 62 360 1.0 12.0 0.00 0.02 0.02 44 1017.8
20260509233610 63 360 0.0 10.0 0.00 0.02 0.02 39 1017.7
20260509233110 62 360 4.0 10.0 0.00 0.02 0.02 39 1017.7
20260509232610 62 360 0.0 3.0 0.00 0.02 0.02 41 1017.7
20260509231528 62 360 1.0 4.0 0.01 0.02 0.02 42 1018.6
20260509231029 62 360 0.0 0.0 0.01 0.02 0.02 43 1018.5
20260509230530 61 360 0.0 0.0 0.01 0.02 0.02 44 1018.4
20260509225531 60 360 0.0 0.0 0.01 0.02 0.02 45 1018.4
20260509225032 59 360 0.0 0.0 0.01 0.02 0.02 46 1018.3
20260509224534 59 360 0.0 5.0 0.01 0.02 0.02 46 1018.2
20260509223554 59 360 1.0 7.0 0.01 0.02 0.02 49 1018.2
20260509223036 59 360 3.0 6.0 0.01 0.02 0.02 51 1018.1
20260509222619 59 360 0.0 6.0 0.01 0.02 0.02 51 1018.1
20260509222058 59 360 2.0 6.0 0.01 0.02 0.02 51 1018.1
20260509221539 58 360 0.0 7.0 0.00 0.01 0.01 51 1018.2
20260509221042 58 360 0.0 7.0 0.00 0.01 0.01 50 1018.2
20260509220041 58 360 0.0 4.0 0.00 0.02 0.01 52 1018.3
20260509215542 57 360 1.0 5.0 0.00 0.02 0.01 51 1018.4
20260509215044 57 360 1.0 10.0 0.00 0.02 0.01 52 1018.4
20260509214626 57 360 0.0 10.0 0.00 0.02 0.01 54 1018.6
20260509214105 56 360 2.0 10.0 0.00 0.02 0.01 55 1018.7
20260509212542 55 360 2.0 14.0 0.00 0.02 0.01 56 1018.7
20260509212042 55 360 6.0 14.0 0.00 0.02 0.01 59 1018.7
20260509211604 55 360 6.0 11.0 0.00 0.02 0.01 62 1018.8
20260509211105 55 360 4.0 12.0 0.00 0.02 0.01 63 1018.9
20260509210604 54 360 7.0 12.0 0.00 0.02 0.01 63 1019.0
20260509210105 54 360 4.0 11.0 0.00 0.02 0.01 66 1019.0
20260509205526 53 360 6.0 11.0 0.00 0.02 0.01 65 1019.0
20260509205107 53 360 7.0 12.0 0.00 0.02 0.01 64 1019.0
20260509204528 53 360 6.0 12.0 0.00 0.02 0.01 65 1019.1
20260509204050 54 360 6.0 9.0 0.00 0.02 0.01 62 1019.1
20260509203610 53 360 0.0 11.0 0.00 0.02 0.01 62 1019.1
20260509202528 52 360 4.0 12.0 0.00 0.02 0.01 67 1019.4
20260509202029 51 360 2.0 19.0 0.01 0.02 0.01 63 1019.4
20260509201550 51 360 7.0 23.0 0.01 0.02 0.01 63 1019.4
20260509201033 51 360 8.0 23.0 0.01 0.02 0.01 68 1019.5
20260509200532 50 360 14.0 23.0 0.01 0.02 0.01 73 1019.5
20260509200054 50 360 2.0 11.0 0.01 0.02 0.01 74 1019.1
20260509195534 50 360 0.0 11.0 0.01 0.02 0.01 72 1019.0
20260509195035 50 360 6.0 11.0 0.01 0.02 0.01 72 1018.8
20260509194536 50 360 3.0 7.0 0.01 0.02 0.01 71 1018.6
20260509194057 50 360 3.0 7.0 0.01 0.02 0.01 69 1018.4
20260509193537 52 360 2.0 7.0 0.01 0.02 0.01 68 1018.3
20260509193059 52 360 0.0 7.0 0.01 0.02 0.01 68 1018.1
20260509192038 52 360 5.0 12.0 0.00 0.01 0.00 67 1017.8
20260509191539 52 360 5.0 22.0 0.00 0.01 0.00 67 1018.1
20260509191042 54 360 11.0 26.0 0.00 0.01 0.00 64 1018.0
20260509190601 56 360 19.0 26.0 0.00 0.02 0.00 55 1017.7
20260509190041 60 360 12.0 20.0 0.00 0.02 0.00 49 1017.3
20260509185526 61 360 0.0 10.0 0.00 0.02 0.00 47 1017.0
20260509185048 61 360 0.0 9.0 0.00 0.02 0.00 47 1017.1
20260509184044 60 360 0.0 5.0 0.00 0.02 0.00 48 1017.2
20260509183104 60 360 0.0 3.0 0.00 0.02 0.00 49 1017.4
20260509182525 60 360 0.0 5.0 0.00 0.02 0.00 49 1017.3
20260509182026 60 360 0.0 7.0 0.00 0.02 0.00 49 1017.3
20260509181531 61 360 0.0 7.0 0.00 0.02 0.00 50 1017.2
20260509181109 60 360 0.0 7.0 0.00 0.02 0.00 50 1017.3
20260509180548 59 360 3.0 7.0 0.00 0.02 0.00 50 1017.5
20260509180108 59 360 0.0 2.0 0.00 0.02 0.00 50 1017.5
20260509175528 58 360 0.0 5.0 0.00 0.02 0.00 51 1017.6
20260509175033 58 360 3.0 5.0 0.00 0.02 0.00 52 1017.7
20260509174611 57 360 0.0 5.0 0.00 0.02 0.00 52 1017.7
20260509174052 57 360 0.0 4.0 0.00 0.02 0.00 52 1017.6
20260509173535 56 360 0.0 6.0 0.00 0.02 0.00 53 1017.6
20260509173056 57 360 1.0 6.0 0.00 0.02 0.00 53 1017.7
20260509172536 56 360 0.0 3.0 0.00 0.02 0.00 54 1017.7
20260509172057 56 360 0.0 3.0 0.00 0.02 0.00 55 1017.7
20260509171558 55 360 0.0 3.0 0.00 0.02 0.00 56 1017.8
20260509171039 55 360 0.0 5.0 0.00 0.02 0.00 55 1017.7
20260509170600 55 360 1.0 5.0 0.00 0.03 0.00 55 1017.7
20260509170100 56 360 0.0 0.0 0.00 0.03 0.00 54 1017.8
20260509165540 56 360 0.0 0.0 0.00 0.03 0.00 52 1017.7
20260509165101 56 360 0.0 0.0 0.00 0.03 0.00 52 1017.7
20260509164541 56 360 0.0 0.0 0.00 0.03 0.00 52 1017.8
20260509164124 56 360 0.0 0.0 0.00 0.03 0.00 53 1018.0
20260509163602 56 360 0.0 0.0 0.00 0.03 0.00 53 1018.0
20260509163042 55 360 0.0 0.0 0.00 0.03 0.00 56 1018.0
20260509162542 55 360 0.0 0.0 0.00 0.03 0.00 55 1018.0
20260509162104 55 360 0.0 0.0 0.00 0.03 0.00 57 1018.1
20260509161605 54 360 0.0 0.0 0.00 0.03 0.00 57 1018.1
20260509161046 55 360 0.0 0.0 0.00 0.03 0.00 57 1018.1
20260509160546 54 360 0.0 0.0 0.00 0.03 0.00 56 1018.1
20260509155525 55 360 0.0 0.0 0.00 0.03 0.00 56 1018.0
20260509155027 55 360 0.0 1.0 0.00 0.03 0.00 55 1017.9
20260509154527 55 360 0.0 12.0 0.00 0.03 0.00 55 1017.9
20260509154110 55 360 3.0 12.0 0.00 0.03 0.00 55 1017.9
20260509153108 55 360 1.0 8.0 0.00 0.03 0.00 55 1017.6
20260509152526 55 360 3.0 8.0 0.00 0.03 0.00 56 1017.6
20260509152028 55 360 6.0 9.0 0.00 0.03 0.00 57 1017.6
20260509151528 55 360 3.0 9.0 0.00 0.03 0.00 59 1017.6
20260509151051 54 360 2.0 7.0 0.00 0.03 0.00 62 1017.6
20260509150531 54 360 3.0 7.0 0.00 0.04 0.00 63 1017.6
20260509150031 55 360 6.0 7.0 0.00 0.04 0.00 62 1017.6
20260509145532 55 360 0.0 5.0 0.00 0.04 0.00 62 1017.6
20260509145033 55 360 4.0 5.0 0.00 0.04 0.00 61 1017.6
20260509144534 55 360 1.0 4.0 0.00 0.04 0.00 61 1017.5
20260509144039 55 360 2.0 5.0 0.00 0.04 0.00 62 1017.5
20260509143541 54 360 0.0 2.0 0.00 0.04 0.00 62 1017.5
20260509143124 54 360 1.0 2.0 0.00 0.04 0.00 62 1017.4
20260509142543 54 360 0.0 0.0 0.00 0.04 0.00 62 1017.4
20260509142025 54 360 0.0 0.0 0.00 0.04 0.00 62 1017.4
20260509141546 54 360 0.0 0.0 0.00 0.04 0.00 62 1017.3
20260509141027 55 360 0.0 0.0 0.00 0.04 0.00 62 1017.3
20260509140547 54 360 0.0 2.0 0.00 0.04 0.00 62 1017.2
20260509140107 54 360 0.0 5.0 0.00 0.04 0.00 62 1017.2
20260509135526 54 360 0.0 6.0 0.00 0.04 0.00 62 1017.1
20260509135048 54 360 2.0 7.0 0.00 0.04 0.00 63 1017.1
20260509134549 55 360 3.0 7.0 0.00 0.04 0.00 63 1017.1
20260509134030 55 360 4.0 5.0 0.00 0.04 0.00 63 1017.0
20260509133029 53 360 0.0 5.0 0.00 0.04 0.00 67 1017.0
20260509132550 52 360 1.0 3.0 0.00 0.04 0.00 70 1016.9
20260509132051 52 360 0.0 0.0 0.00 0.04 0.00 71 1016.8
20260509131532 51 360 0.0 0.0 0.00 0.04 0.00 71 1016.7
20260509131034 51 360 0.0 0.0 0.00 0.04 0.00 71 1016.7
20260509130534 51 360 0.0 0.0 0.00 0.05 0.00 72 1016.6
20260509130035 51 360 0.0 0.0 0.00 0.05 0.00 71 1016.5
20260509125557 51 360 0.0 0.0 0.00 0.05 0.00 71 1016.6
20260509125057 51 360 0.0 0.0 0.00 0.05 0.00 71 1016.4
20260509124538 51 360 0.0 0.0 0.00 0.05 0.00 71 1016.2
20260509124040 51 360 0.0 0.0 0.00 0.05 0.00 72 1016.1
20260509123601 51 360 0.0 0.0 0.00 0.05 0.00 72 1015.9
20260509123102 51 360 0.0 0.0 0.00 0.05 0.00 72 1015.9
20260509122542 51 360 0.0 0.0 0.00 0.05 0.00 72 1015.7
20260509122027 51 360 0.0 0.0 0.00 0.05 0.00 72 1015.6
20260509121530 50 360 0.0 3.0 0.00 0.05 0.00 72 1015.6
20260509121051 50 360 0.0 3.0 0.00 0.05 0.00 72 1015.6
20260509120551 50 360 0.0 0.0 0.00 0.05 0.00 72 1015.5
20260509115547 50 360 0.0 0.0 0.00 0.05 0.00 71 1015.5
20260509115031 50 360 0.0 0.0 0.00 0.05 0.00 72 1015.4
20260509114610 50 360 0.0 0.0 0.00 0.05 0.00 71 1015.3
20260509114033 50 360 0.0 1.0 0.00 0.05 0.00 71 1015.2
20260509113554 51 360 0.0 6.0 0.00 0.05 0.00 71 1015.1
20260509113111 51 360 0.0 9.0 0.00 0.05 0.00 71 1015.0
20260509112551 51 360 2.0 9.0 0.00 0.05 0.00 71 1014.9
20260509112112 50 360 0.0 8.0 0.00 0.05 0.00 71 1014.8
20260509111612 50 360 2.0 4.0 0.00 0.05 0.00 70 1014.8
20260509111033 51 360 0.0 0.0 0.00 0.05 0.00 69 1014.7
20260509110553 51 360 0.0 0.0 0.00 0.06 0.00 69 1014.7
20260509110054 51 360 0.0 0.0 0.00 0.06 0.00 69 1014.6
20260509105535 51 360 0.0 0.0 0.00 0.06 0.00 68 1014.6
20260509105040 51 360 0.0 0.0 0.00 0.06 0.00 68 1014.6
20260509104541 52 360 0.0 4.0 0.00 0.06 0.00 67 1014.5
20260509104043 52 360 0.0 4.0 0.00 0.06 0.00 67 1014.3
20260509103543 52 360 1.0 4.0 0.00 0.06 0.00 66 1014.2
20260509103043 53 360 0.0 2.0 0.00 0.06 0.00 65 1014.2
20260509102104 53 360 0.0 6.0 0.00 0.06 0.00 64 1013.8
20260509101544 53 360 0.0 6.0 0.00 0.06 0.00 65 1014.2
20260509101127 52 360 0.0 0.0 0.00 0.06 0.00 67 1014.2
20260509100545 52 360 0.0 2.0 0.00 0.07 0.00 67 1014.2
20260509100046 51 360 0.0 2.0 0.00 0.07 0.00 67 1014.1
20260509095607 51 360 0.0 0.0 0.00 0.07 0.00 68 1014.1
20260509095047 50 360 0.0 0.0 0.00 0.07 0.00 67 1013.9
20260509094549 50 360 0.0 2.0 0.00 0.07 0.00 68 1013.8
20260509094030 50 360 0.0 6.0 0.00 0.07 0.00 68 1013.6
20260509093530 50 360 4.0 6.0 0.00 0.07 0.00 68 1013.6
20260509093031 50 360 0.0 0.0 0.00 0.07 0.00 68 1013.5
20260509092613 50 360 0.0 3.0 0.00 0.07 0.00 67 1013.4
20260509092113 50 360 0.0 4.0 0.00 0.07 0.00 67 1013.4
20260509091532 50 360 0.0 4.0 0.00 0.07 0.00 67 1013.4
20260509091035 51 360 0.0 3.0 0.00 0.07 0.00 66 1013.4
20260509090535 52 360 1.0 3.0 0.00 0.08 0.00 65 1013.3
20260509090038 52 360 0.0 7.0 0.00 0.08 0.00 65 1013.1
20260509085539 52 360 1.0 7.0 0.00 0.08 0.00 65 1013.2
20260509085039 53 360 3.0 6.0 0.00 0.08 0.00 64 1013.1
20260509084601 53 360 2.0 6.0 0.00 0.08 0.00 64 1013.1
20260509084043 54 360 3.0 6.0 0.00 0.08 0.00 63 1013.2
20260509083623 54 360 4.0 6.0 0.00 0.08 0.00 62 1013.3
20260509083042 55 360 0.0 1.0 0.00 0.08 0.00 61 1013.2
20260509082527 56 360 0.0 0.0 0.00 0.08 0.00 60 1013.1
20260509082104 56 360 0.0 0.0 0.00 0.08 0.00 59 1013.1
20260509081622 56 360 0.0 0.0 0.00 0.08 0.00 59 1013.1
20260509081122 55 360 0.0 0.0 0.00 0.08 0.00 60 1013.2
20260509080540 55 360 0.0 3.0 0.00 0.09 0.00 60 1013.2
20260509080026 55 360 0.0 6.0 0.00 0.09 0.00 60 1013.2
20260509075547 56 360 6.0 9.0 0.00 0.09 0.00 60 1013.4
20260509075027 56 360 5.0 9.0 0.00 0.09 0.00 58 1013.5
20260509074527 56 360 0.0 0.0 0.00 0.09 0.00 58 1013.5
20260509074029 56 360 0.0 0.0 0.00 0.09 0.00 58 1013.5
20260509073550 57 360 0.0 0.0 0.00 0.09 0.00 57 1013.6
20260509073111 58 360 0.0 0.0 0.00 0.09 0.00 55 1013.4
20260509072530 58 360 0.0 0.0 0.00 0.09 0.00 54 1013.3
20260509072113 57 360 0.0 6.0 0.00 0.09 0.00 54 1012.7
20260509071552 58 360 2.0 6.0 0.00 0.09 0.00 55 1012.8
20260509071054 58 360 0.0 0.0 0.00 0.09 0.00 55 1012.6
20260509070553 58 360 0.0 0.0 0.00 0.11 0.00 54 1012.6
20260509070114 58 360 0.0 0.0 0.00 0.11 0.00 53 1012.6
20260509065534 58 360 0.0 0.0 0.00 0.11 0.00 53 1012.6
20260509065036 58 360 0.0 0.0 0.00 0.11 0.00 52 1012.6
20260509064537 59 360 0.0 0.0 0.00 0.11 0.00 52 1012.6
20260509064121 59 360 0.0 0.0 0.00 0.11 0.00 51 1012.6
20260509063538 59 360 0.0 0.0 0.00 0.11 0.00 51 1012.5
20260509063039 59 360 0.0 3.0 0.00 0.11 0.00 50 1012.4
20260509062540 59 360 0.0 5.0 0.00 0.11 0.00 50 1012.4
20260509062042 59 360 0.0 5.0 0.00 0.11 0.00 50 1012.4
20260509061543 59 360 1.0 5.0 0.00 0.11 0.00 50 1012.3
20260509061045 59 360 0.0 0.0 0.00 0.11 0.00 50 1012.3
20260509060526 60 360 0.0 1.0 0.00 0.13 0.11 49 1012.4
20260509060047 60 360 0.0 1.0 0.00 0.13 0.11 49 1012.4
20260509055546 60 360 1.0 3.0 0.00 0.13 0.11 49 1012.3
20260509055027 60 360 0.0 1.0 0.00 0.13 0.11 48 1012.3
20260509054532 60 360 0.0 4.0 0.00 0.13 0.11 48 1012.4
20260509054055 60 360 0.0 6.0 0.00 0.13 0.11 48 1012.5
20260509053554 61 360 2.0 7.0 0.00 0.13 0.11 47 1012.5
20260509053033 61 360 5.0 7.0 0.00 0.13 0.11 46 1012.6
20260509052556 62 360 1.0 14.0 0.00 0.13 0.11 45 1012.6
20260509052055 62 360 7.0 14.0 0.00 0.13 0.11 45 1012.5
20260509051536 62 360 11.0 22.0 0.00 0.13 0.11 45 1012.5
20260509051119 62 360 9.0 22.0 0.00 0.13 0.11 45 1012.5
20260509050538 61 360 2.0 7.0 0.00 0.14 0.11 49 1012.6
20260509050100 60 360 0.0 12.0 0.00 0.14 0.11 51 1012.4
20260509045540 59 360 0.0 12.0 0.00 0.14 0.11 52 1012.3
20260509045101 59 360 4.0 13.0 0.00 0.14 0.11 54 1012.1
20260509044123 57 360 0.0 0.0 0.00 0.14 0.11 58 1012.0
20260509043618 56 360 0.0 1.0 0.00 0.14 0.11 59 1011.9
20260509043041 56 360 0.0 5.0 0.00 0.14 0.11 59 1011.9
20260509042542 56 360 0.0 5.0 0.00 0.14 0.11 59 1011.7
20260509042043 57 360 0.0 0.0 0.00 0.14 0.11 58 1011.7
20260509041604 57 360 0.0 0.0 0.00 0.14 0.11 57 1011.6
20260509041125 58 360 0.0 0.0 0.00 0.14 0.11 56 1011.6
20260509040043 59 360 0.0 0.0 0.00 0.15 0.11 55 1011.5
20260509035605 59 360 0.0 0.0 0.00 0.15 0.11 54 1011.4
20260509035025 59 360 0.0 0.0 0.00 0.15 0.11 54 1011.4
20260509034525 59 360 0.0 5.0 0.00 0.15 0.11 54 1011.4
20260509034048 59 360 3.0 5.0 0.00 0.15 0.11 54 1011.3
20260509033529 59 360 0.0 5.0 0.00 0.15 0.11 54 1011.2
20260509033031 59 360 0.0 9.0 0.00 0.15 0.11 55 1011.2
20260509032553 59 360 6.0 9.0 0.00 0.15 0.11 55 1011.1
20260509032114 59 360 6.0 8.0 0.00 0.15 0.11 55 1011.0
20260509031534 59 360 6.0 7.0 0.00 0.15 0.11 54 1011.0
20260509031056 59 360 0.0 5.0 0.00 0.15 0.11 53 1011.0
20260509030616 60 360 0.0 0.0 0.00 0.15 0.11 53 1011.0
20260509030116 60 360 0.0 0.0 0.00 0.15 0.11 53 1011.0
20260509025535 60 360 0.0 0.0 0.00 0.15 0.11 53 1010.8
20260509024616 62 360 0.0 0.0 0.00 0.15 0.11 51 1010.7
20260509024057 63 360 0.0 0.0 0.00 0.15 0.11 48 1010.7
20260509023537 64 360 0.0 0.0 0.00 0.15 0.11 47 1010.7
20260509023118 65 360 0.0 0.0 0.00 0.15 0.11 44 1010.5
20260509022536 66 360 0.0 0.0 0.00 0.15 0.11 42 1010.6
20260509022118 66 360 0.0 0.0 0.00 0.15 0.11 41 1010.4
20260509021538 66 360 0.0 0.0 0.00 0.15 0.11 41 1010.4
20260509021101 68 360 0.0 0.0 0.00 0.15 0.11 40 1010.4